Location: Aiyede
(8.4833°N, 4.4500°E)
Time: 13:19:06
(UTC+00:00)

Envisat - Pass Details

Date: 04 December 2020
Orbit: 764 x 766 km, 98.1° (Epoch: 18 January)

Event Time Altitude Azimuth Distance (km) Brightness Sun altitude
Rises 17:52:57 0° 193° (SSW) 3,223 6.8 -7.9°
Reaches altitude 10° 17:55:39 10° 207° (SSW) 2,297 6.3 -8.5°
Maximum altitude 17:59:38 24° 259° (W) 1,558 5.7 -9.4°
Drops below altitude 10° 18:03:38 10° 312° (NW) 2,296 5.8 -10.3°
Sets 18:06:22 0° 326° (NW) 3,221 6.4 -11.0°
